CW2882 Weather Reports


time (UTC)temp
C
wind
direction
speed
KPH
gust
KPH
rain 1hr
cm
rain 24hr
cm
rain mn
cm
humidity
%
barometer
mb
20260505010032 17 160 4.8 12.9 0.00 0.00 0.00 71 1009.6
20260505004530 17 197 4.8 12.9 0.00 0.00 0.00 69 1009.6
20260505003028 18 158 4.8 11.3 0.00 0.00 0.00 63 1009.7
20260505001528 19 160 3.2 11.3 0.00 0.00 0.00 60 1009.7
20260505000041 20 192 3.2 11.3 0.00 0.00 0.00 60 1009.8
20260504234527 20 236 4.8 9.7 0.00 0.00 0.00 60 1009.9
20260504233025 20 150 4.8 11.3 0.00 0.00 0.00 59 1009.9
20260504231524 20 188 3.2 17.7 0.00 0.00 0.00 59 1010.1
20260504230024 19 229 3.2 12.9 0.00 0.00 0.00 63 1010.1
20260504224523 18 188 3.2 14.5 0.00 0.00 0.00 64 1010.2
20260504223023 19 184 4.8 12.9 0.00 0.00 0.00 64 1010.3
20260504221526 20 186 1.6 9.7 0.00 0.00 0.00 63 1010.3
20260504220039 20 256 4.8 14.5 0.00 0.00 0.00 61 1010.4
20260504214521 21 117 1.6 12.9 0.00 0.00 0.00 59 1010.5
20260504213021 22 136 3.2 11.3 0.00 0.00 0.00 57 1010.5
20260504211520 22 255 4.8 11.3 0.00 0.00 0.00 57 1010.5
20260504210019 22 236 0.0 4.8 0.00 0.00 0.00 59 1010.6
20260504204533 21 211 1.6 9.7 0.00 0.00 0.00 58 1010.7
20260504203019 21 162 3.2 9.7 0.00 0.00 0.00 60 1010.8
20260504201517 22 237 0.0 6.4 0.00 0.00 0.00 56 1011.0
20260504200014 21 262 1.6 8.0 0.00 0.00 0.00 58 1010.9
20260504194514 21 203 0.0 8.0 0.00 0.00 0.00 61 1010.9
20260504193012 20 193 4.8 11.3 0.00 0.00 0.00 60 1010.8
20260504191509 20 258 1.6 11.3 0.00 0.00 0.00 61 1010.9
20260504190012 20 260 1.6 11.3 0.00 0.00 0.00 62 1011.0
20260504184508 21 276 3.2 6.4 0.00 0.00 0.00 58 1011.0
20260504183006 20 245 1.6 4.8 0.00 0.00 0.00 59 1010.9
20260504181559 20 260 3.2 8.0 0.00 0.00 0.00 61 1011.0
20260504180137 19 276 3.2 9.7 0.00 0.00 0.00 64 1011.0
20260504174536 19 241 0.0 4.8 0.00 0.00 0.00 67 1011.1
20260504173032 18 128 0.0 4.8 0.00 0.00 0.00 67 1011.1
20260504171532 17 201 3.2 8.0 0.00 0.00 0.00 68 1011.1
20260504120109 11 160 0.0 0.0 0.00 0.00 0.00 81 1009.8
20260504081536 14 139 0.0 4.8 0.00 0.00 0.00 68 1009.7
20260504050015 16 209 0.0 1.6 0.00 0.00 0.00 62 1009.8
20260504044518 16 153 0.0 3.2 0.00 0.00 0.00 61 1009.9
20260504043024 17 158 0.0 1.6 0.00 0.00 0.00 61 1009.8
20260504041514 17 145 0.0 1.6 0.00 0.00 0.00 58 1009.8
20260504040019 17 129 0.0 1.6 0.00 0.00 0.00 60 1009.7
20260504034512 18 153 0.0 1.6 0.00 0.00 0.00 60 1009.8
20260504033011 18 124 0.0 3.2 0.00 0.00 0.00 58 1009.7
20260504031514 20 184 3.2 6.4 0.00 0.00 0.00 55 1009.6
20260504030010 20 217 0.0 6.4 0.00 0.00 0.00 53 1009.7
20260504024514 21 145 0.0 4.8 0.00 0.00 0.00 52 1009.9
20260504023007 21 202 0.0 4.8 0.00 0.00 0.00 52 1009.9
20260504021505 21 226 1.6 6.4 0.00 0.00 0.00 51 1009.9
20260504020004 22 235 0.0 4.8 0.00 0.00 0.00 52 1010.1
20260504014503 22 238 0.0 3.2 0.00 0.00 0.00 51 1010.2
20260504013106 22 307 0.0 3.2 0.00 0.00 0.00 53 1010.4
20260504011600 22 360 0.0 3.2 0.00 0.00 0.00 51 1010.5